User: anonymous   Login
Location: ?
(35.4996°N, 139.3166°E)
Time: 11:30:10
(UTC+00:00)
Language:

PAYLOAD A - Orbit

View from above orbital plane
View from above orbital plane
View from above satellite
View from above satellite

Ground track
Ground track

The orbit data is extracted from the following two-line orbital elements,

1 27840U 03031A   24167.92227507  .00000285  00000-0  10077-3 0  9995
2 27840  98.5315 135.4118 0097743   6.1085 354.1270 14.39375839100787
Epoch (UTC): 15 June 2024 22:08:04
Eccentricity: 0.0097743
inclination: 98.5315°
perigee height: 691 km
apogee height: 830 km
right ascension of ascending node: 135.4118°
argument of perigee: 6.1085°
revolutions per day: 14.39375839
mean anomaly at epoch: 354.1270°
orbit number at epoch: 10078

The dashed part of the orbit path shows where the satellite is in the earth's shadow,  

DLR